| time (UTC) | temp F | wind direction | speed MPH | gust MPH | rain 1hr in | rain 24hr in | rain mn in | humidity % | barometer mb |
| 20260506011756 | 43 | 230 | 20.0 | 29.0 | 0.00 | 0.00 | 0.00 | 99 | |
| 20260506001655 | 43 | 260 | 28.0 | 37.0 | 0.00 | 0.00 | 0.00 | 93 | |
| 20260505231655 | 45 | 270 | 28.0 | 38.0 | 0.00 | 0.00 | 0.00 | 81 | |
| 20260505221654 | 45 | 290 | 20.0 | 28.0 | 0.00 | 0.00 | 0.00 | 87 | |
| 20260505211712 | 46 | 280 | 17.0 | 0.0 | 0.00 | 0.00 | 0.00 | 87 | |
| 20260505201711 | 48 | 230 | 21.0 | 0.0 | 0.00 | 0.00 | 0.00 | 76 | |
| 20260505191712 | 46 | 240 | 24.0 | 0.0 | 0.00 | 0.00 | 0.00 | 87 | |
| 20260505181655 | 50 | 310 | 17.0 | 26.0 | 0.00 | 0.00 | 0.00 | 76 | |
| 20260505171655 | 54 | 220 | 13.0 | 0.0 | 0.00 | 0.00 | 0.00 | 62 | |
| 20260505161755 | 59 | 90 | 2.0 | 0.0 | 0.00 | 0.00 | 0.00 | 47 | |
| 20260505151654 | 63 | 140 | 5.0 | 0.0 | 0.00 | 0.00 | 0.00 | 39 | |
| 20260505121655 | 61 | 120 | 3.0 | 0.0 | 0.00 | 0.00 | 0.00 | 44 | |
| 20260505111655 | 64 | 340 | 3.0 | 10.0 | 0.00 | 0.00 | 0.00 | 39 | |
| 20260505101655 | 63 | 330 | 6.0 | 13.0 | 0.00 | 0.00 | 0.00 | 39 | |
| 20260505091655 | 61 | 340 | 7.0 | 0.0 | 0.00 | 0.00 | 0.00 | 41 | |
| 20260505081656 | 59 | 330 | 5.0 | 0.0 | 0.00 | 0.00 | 0.00 | 47 | |
| 20260505071654 | 57 | 320 | 2.0 | 0.0 | 0.00 | 0.00 | 0.00 | 54 | |
| 20260505061656 | 55 | 330 | 3.0 | 0.0 | 0.00 | 0.00 | 0.00 | 54 | |
| 20260505051655 | 54 | 310 | 2.0 | 0.0 | 0.00 | 0.00 | 0.00 | 54 | |
| 20260505041655 | 52 | 210 | 13.0 | 0.0 | 0.00 | 0.00 | 0.00 | 57 | |
| 20260505031655 | 54 | 190 | 8.0 | 0.0 | 0.00 | 0.00 | 0.00 | 54 | |
| 20260505021655 | 52 | 140 | 7.0 | 0.0 | 0.00 | 0.00 | 0.00 | 57 |